NUSAT-1 (FRESCO) (41557 NORAD) Tracking and Keplerian Element Data

This shows tracking and keplerian element data for the satellite.

Feedback or suggestion? Click here.




ElementValue
Catalog41557
NameNUSAT-1 (FRESCO)
Epoch Orbit24496
Epoch Day295.12311611
Epoch Year2020
RAAN24.5393
Inclination97.4025
Eccentricity0.0013702
Argument of Perigee10.6217
Mean Anonmoly106.8703
Mean Motion15.28321807
Decay Rate1.432E-05
L11 41557U 16033B 20295.12311611 .00001432 00000-0 54524-4 0 9993
L22 41557 97.4025 24.5393 0013702 10.6217 106.8703 15.28321807244964

Live tracking and technical data element details for NUSAT-1 (FRESCO) (NORAD 41557). NUSAT-1 (FRESCO) can be tracked NOW for your location showing map with azimuth and elevation plus other details from your city location.

Track the satellite on the map from your city or location and see movement details for azimuth, elevation, latitude, longitude, range, height, and movement on the map or in text.







IsCatalogInMostPopularTable: catalog: 41557, numindb: 392
Update: records affected: 1



GetName: 41557 NUSAT-1 (FRESCO)

Hit Count: updated at: Thu, 22 Oct 2020 04:37:34 GMT